EIDW

Dublin Airport

Airport
ICAO code
EIDW
IATA Code
DUB
Summary
ICAO Region
EUR
ICAO Territory
Location

Collinstown, Fingal,

Serving
Dublin
Elevation
242 ft
Coordinates
53° 25' 41" N , 6° 15' 20" W
KCC
Metar
EIDW 202300Z 14005KT 120V180 9999 FEW012 BKN190 06/04 Q1014 NOSIG

Description

International airport serving the city of Dublin.

Climatology

Temperate Marine climate/Oceanic climate (Köppen climate classification Cfb). Moderately cool summer and comparatively warm winter with a temperature range of only 14°C. Prevailing south-westerly winds from the Atlantic Ocean.

Runways

Designator Length Width Surface Rops
11/29 1339 61 ASP Yes/Yes
16/34 2072 61 ASP Yes/Yes
10/28 2637 45 CON Yes/Yes

SKYbrary Partners:

Safety knowledge contributed by: